Location: Noordwijk
(52.2400°N, 4.4500°E)
Time: 16:38:05
(UTC+00:00)

CAS-4A - Pass Details

Date: 12 December 2022
Orbit: 514 x 531 km, 43.0° (Epoch: 01 February)

Event Time Altitude Azimuth Distance (km) Brightness Sun altitude
Exits shadow 04:13:14 16° 137° (SE) 1,445 ? -30.6°
Drops below altitude 10° 04:14:29 10° 122° (ESE) 1,772 ? -30.4°
Sets 04:17:08 0° 106° (ESE) 2,667 ? -30.0°
